Regional Weather Roundup
Issued by NWS

Home | Current Version | Previous Version | Text Only | Print | Product List | Glossary Off
Versions: 1 2 3 4 5 6 7 8 9 10 11 12 13 14 15 16 17 18 19 20 21 22 23 24 25 26 27 28 29 30 31 32 33 34 35 36 37 38 39 40 41 42 43 44 45 46 47 48 49 50

000
ASUS43 KFSD 270710
RWRSD

WEATHER ROUNDUP FOR SOUTH DAKOTA
NATIONAL WEATHER SERVICE SIOUX FALLS SD
200 AM CDT WED AUG 27 2014

NOTE: "FAIR" INDICATES FEW OR NO CLOUDS BELOW 12,000 FEET WITH NO
SIGNIFICANT WEATHER AND/OR OBSTRUCTIONS TO VISIBILITY.


SDZ001>005-009-010-012>017-270800-
NORTHWEST AND NORTH CENTRAL SOUTH DAKOTA

CITY           SKY/WX    TMP DP  RH WIND       PRES   REMARKS
BUFFALO          N/A     53  51  93 E6        30.11F
FAITH            N/A     53  51  93 E8        30.16S
MOBRIDGE       CLEAR     56  53  90 E7        30.15F
$$

SDZ012>016-024>037-041>051-057-063-072>074-270800-
SOUTHWEST AND SOUTH CENTRAL SOUTH DAKOTA

CITY           SKY/WX    TMP DP  RH WIND       PRES   REMARKS
RAPID CTY ARPT MOCLDY    60  54  80 N5        30.16F
PIERRE         CLOUDY    58  54  86 E10       30.12F
CUSTER         CLOUDY    58  54  86 W3        30.26S
ELLSWORTH AFB  CLOUDY    62  54  76 CALM      30.16S
PHILIP         PTCLDY    59  54  83 NE10      30.11S
PINE RIDGE     FOG       53  53 100 MISG      30.14S VSB 1/4
WINNER         FAIR      63  60  90 SE10      30.12S
$$

SDZ004>011-016>023-039-040-270800-
NORTHEAST SOUTH DAKOTA

CITY           SKY/WX    TMP DP  RH WIND       PRES   REMARKS
ABERDEEN       CLOUDY    57  56  96 NE3       30.18F
WATERTOWN      CLOUDY    59  55  87 SE6       30.18F
SISSETON         N/A     58  57  97 CALM      30.18F
$$

SDZ017-020-022-023-036>040-048>070-270800-
SOUTHEAST SOUTH DAKOTA

CITY           SKY/WX    TMP DP  RH WIND       PRES   REMARKS
SIOUX FALLS    PTCLDY    60  57  89 NE3       30.18S
HURON          PTCLDY    60  57  89 SE6       30.15S
CHAMBERLAIN    PTCLDY    61  58  91 SE9       30.14S
MITCHELL       PTCLDY    60  58  92 SE5       30.15F
YANKTON        CLEAR     59  57  94 NE5       30.14F
$$

ABBREVIATIONS USED IN REMARKS
   TC - TEMPERATURE IN CELSIUS
  WCI - WIND CHILL INDEX
   HX - HEAT INDEX
  VSB - VISIBILITY



USA.gov is the U.S. government's official web portal to all federal, state and local government web resources and services.